DW6615 Weather Reports


time (UTC)temp
F
wind
direction
speed
knots
gust
knots
rain 1hr
in
rain 24hr
in
rain mn
in
humidity
%
barometer
mb
20260510093341 50 326 0.0 1.7 0.01 0.17 0.01 100 1011.1
20260510093116 50 301 0.0 1.7 0.01 0.17 0.01 100 1011.1
20260510092843 50 300 0.9 1.7 0.01 0.17 0.01 100 1011.2
20260510092353 50 177 0.0 0.0 0.01 0.17 0.01 100 1010.9
20260510091854 50 160 0.0 0.0 0.01 0.17 0.01 100 1010.9
20260510091505 50 160 0.0 0.0 0.01 0.17 0.01 100 1011.0
20260510091404 50 160 0.0 0.9 0.01 0.17 0.01 100 1010.9
20260510090910 50 160 0.0 0.9 0.01 0.17 0.01 100 1011.0
20260510090359 50 160 0.0 1.7 0.01 0.17 0.01 100 1011.1
20260510090005 49 158 0.0 1.7 0.01 0.17 0.01 100 1010.9
20260510085902 50 158 0.0 1.7 0.01 0.17 0.01 100 1010.9
20260510085353 50 155 0.0 1.7 0.01 0.17 0.01 100 1010.9
20260510084853 50 155 0.0 1.7 0.01 0.17 0.01 100 1010.9
20260510084503 49 155 0.0 1.7 0.00 0.16 0.00 100 1010.9
20260510084400 50 155 0.0 1.7 0.00 0.16 0.00 100 1010.9
20260510083844 50 155 0.0 1.7 0.00 0.16 0.00 99 1010.9
20260510083119 50 149 0.0 1.7 0.00 0.16 0.00 99 1011.0
20260510082852 50 136 0.0 1.7 0.00 0.16 0.00 100 1010.9
20260510082403 50 164 0.0 1.7 0.00 0.16 0.00 100 1011.0
20260510081847 50 128 0.0 0.0 0.00 0.16 0.00 100 1010.9
20260510081619 50 93 0.0 0.0 0.00 0.16 0.00 100 1011.0
20260510081359 51 152 0.0 0.0 0.00 0.16 0.00 100 1010.9
20260510080843 51 124 0.0 0.0 0.00 0.16 0.00 100 1011.0
20260510080417 51 175 0.0 0.0 0.00 0.16 0.00 100 1011.1
20260510080115 50 170 0.0 0.0 0.00 0.16 0.00 100 1011.1
20260510075857 51 168 0.0 0.0 0.00 0.16 0.00 100 1011.1
20260510075348 51 48 0.0 0.0 0.00 0.16 0.00 100 1011.1
20260510074855 51 25 0.0 0.0 0.00 0.16 0.00 100 1011.2
20260510074624 50 21 0.0 0.0 0.00 0.16 0.00 100 1011.1
20260510074344 51 21 0.0 0.0 0.00 0.16 0.00 100 1011.1
20260510073849 51 26 0.0 1.7 0.00 0.16 0.00 100 1011.1
20260510073421 50 333 0.0 1.7 0.00 0.16 0.00 100 1011.2
20260510073119 50 330 0.0 1.7 0.00 0.16 0.00 100 1011.3
20260510072840 50 327 0.9 1.7 0.00 0.16 0.00 100 1011.3
20260510072412 50 289 0.9 1.7 0.00 0.16 0.00 100 1011.6
20260510071855 50 287 0.9 1.7 0.00 0.16 0.00 100 1011.5
20260510071623 49 294 0.0 1.7 0.00 0.16 0.00 100 1011.5
20260510071345 49 283 0.0 0.9 0.00 0.16 0.00 100 1011.3
20260510070854 49 309 0.9 2.6 0.00 0.16 0.00 100 1011.6
20260510070346 49 200 0.0 2.6 0.00 0.16 0.00 100 1011.3
20260510070108 48 258 0.9 6.1 0.00 0.16 0.00 100 1011.7
20260510065851 48 295 0.9 6.1 0.00 0.16 0.00 100 1011.4
20260510065400 48 274 2.6 6.1 0.00 0.16 0.00 99 1011.7
20260510064845 48 343 0.0 1.7 0.00 0.16 0.00 99 1010.8
20260510064613 47 343 0.0 0.0 0.00 0.16 0.00 99 1010.8
20260510064355 48 343 0.0 0.0 0.00 0.16 0.00 99 1010.7
20260510063843 48 343 0.0 0.0 0.00 0.16 0.00 99 1010.7
20260510063356 48 343 0.0 0.0 0.00 0.16 0.00 99 1010.8
20260510063118 47 343 0.0 0.0 0.00 0.16 0.00 99 1010.8
20260510062841 48 343 0.0 0.0 0.00 0.16 0.00 99 1010.8
20260510062346 48 343 0.0 1.7 0.00 0.16 0.00 99 1010.9
20260510061855 48 343 0.0 1.7 0.00 0.16 0.00 99 1010.9
20260510061623 47 343 0.0 1.7 0.00 0.16 0.00 99 1011.0
20260510061344 48 343 0.9 1.7 0.00 0.16 0.00 99 1011.0
20260510060852 48 341 0.0 1.7 0.00 0.16 0.00 99 1011.0
20260510060342 48 341 0.0 1.7 0.00 0.16 0.00 99 1011.1
20260510060104 48 341 0.0 0.9 0.00 0.16 0.00 99 1011.0
20260510055908 48 341 0.0 1.7 0.00 0.16 0.00 99 1011.0
20260510055336 49 341 0.0 1.7 0.00 0.16 0.00 99 1011.1
20260510054843 49 341 0.0 1.7 0.00 0.16 0.00 99 1011.2
20260510054612 48 341 0.0 1.7 0.00 0.16 0.00 99 1011.3
20260510054336 49 2 0.0 1.7 0.00 0.16 0.00 99 1011.3
20260510053900 48 314 0.9 1.7 0.00 0.16 0.00 99 1011.3
20260510053350 48 330 1.7 1.7 0.00 0.16 0.00 98 1011.0
20260510053112 48 333 0.9 1.7 0.00 0.16 0.00 98 1010.9
20260510052840 49 326 1.7 1.7 0.00 0.16 0.00 99 1010.8
20260510052349 49 158 0.0 1.7 0.00 0.16 0.00 99 1010.6
20260510051855 49 158 0.0 1.7 0.00 0.16 0.00 99 1010.7
20260510051618 48 158 0.0 0.0 0.00 0.16 0.00 99 1010.7
20260510051345 49 158 0.0 0.0 0.00 0.16 0.00 99 1010.6
20260510050852 49 158 0.0 1.7 0.00 0.16 0.00 99 1010.6
20260510050343 49 158 0.0 1.7 0.00 0.16 0.00 98 1010.7
20260510050120 48 158 0.0 0.0 0.00 0.16 0.00 99 1010.7
20260510045844 49 158 0.0 0.0 0.00 0.16 0.00 99 1010.7
20260510045354 49 158 0.0 0.0 0.00 0.16 0.00 99 1010.7
20260510044838 49 158 0.0 0.0 0.00 0.16 0.00 98 1010.7
20260510044508 48 158 0.0 0.0 0.00 0.16 0.00 98 1010.7
20260510044407 49 158 0.0 0.0 0.00 0.16 0.00 98 1010.6
20260510043910 49 158 0.0 0.0 0.00 0.16 0.00 98 1010.8
20260510043400 49 158 0.0 0.0 0.00 0.16 0.00 98 1010.8
20260510043117 49 158 0.0 0.9 0.00 0.16 0.00 98 1010.8
20260510042844 49 158 0.0 0.9 0.00 0.16 0.00 98 1010.8
20260510042414 49 158 0.0 1.7 0.00 0.16 0.00 99 1010.8
20260510041857 49 158 0.0 1.7 0.00 0.16 0.00 98 1010.9
20260510041621 49 158 0.0 1.7 0.00 0.16 0.00 98 1010.9
20260510041348 49 158 0.0 0.9 0.00 0.16 0.00 98 1010.9
20260510040852 50 158 0.0 0.9 0.00 0.16 0.00 99 1010.8
20260510040342 49 158 0.0 0.0 0.00 0.16 0.00 98 1010.8
20260510040119 49 158 0.0 0.0 0.00 0.16 0.00 98 1010.9
20260510035844 49 158 0.0 0.0 0.00 0.16 0.16 98 1010.8
20260510035355 49 158 0.0 0.0 0.00 0.16 0.16 98 1010.9
20260510034840 49 158 0.0 0.0 0.00 0.16 0.16 98 1010.7
20260510034608 49 158 0.0 0.0 0.00 0.16 0.16 98 1010.8
20260510034352 49 158 0.0 0.0 0.00 0.16 0.16 98 1010.7
20260510033856 49 158 0.0 0.0 0.00 0.16 0.16 98 1010.7
20260510033348 50 158 0.0 0.0 0.00 0.16 0.16 97 1010.7
20260510033108 49 158 0.0 0.0 0.00 0.16 0.16 97 1010.7
20260510032847 50 158 0.0 0.0 0.00 0.16 0.16 98 1010.8
20260510032337 50 158 0.0 0.0 0.00 0.16 0.16 98 1010.8
20260510031843 50 158 0.0 0.0 0.00 0.16 0.16 98 1010.7
20260510031611 50 158 0.0 0.0 0.00 0.16 0.16 98 1010.7
20260510031414 50 158 0.0 0.0 0.00 0.16 0.16 97 1010.7
20260510030837 51 158 0.0 0.0 0.00 0.16 0.16 97 1010.6
20260510030346 51 158 0.0 0.0 0.00 0.16 0.16 97 1010.7
20260510030109 51 158 0.0 0.0 0.00 0.16 0.16 97 1010.8
20260510025850 51 158 0.0 0.0 0.00 0.16 0.16 97 1010.8
20260510025337 52 158 0.0 0.0 0.00 0.16 0.16 97 1010.8
20260510024847 52 158 0.0 0.0 0.00 0.16 0.16 97 1010.8
20260510024616 51 158 0.0 0.0 0.00 0.16 0.16 97 1010.7
20260510024417 52 158 0.0 0.0 0.00 0.16 0.16 97 1010.7
20260510023846 52 158 0.0 1.7 0.00 0.16 0.16 98 1010.6
20260510023356 53 158 0.0 2.6 0.00 0.16 0.16 98 1010.6
20260510023117 52 158 0.0 2.6 0.00 0.16 0.16 99 1010.6
20260510022837 52 158 0.9 4.3 0.00 0.16 0.16 99 1010.6
20260510022348 52 174 0.9 4.3 0.00 0.16 0.16 99 1010.6
20260510021909 51 126 0.0 1.7 0.00 0.16 0.16 98 1010.7
20260510021617 51 126 0.0 1.7 0.00 0.16 0.16 98 1010.6
20260510021357 51 121 0.0 0.9 0.00 0.16 0.16 98 1010.6
20260510020855 51 121 0.0 1.7 0.00 0.16 0.16 98 1010.4
20260510020345 51 121 0.0 1.7 0.00 0.16 0.16 97 1010.5
20260510020006 50 198 0.0 0.0 0.00 0.16 0.16 97 1010.5
20260510015905 51 198 0.0 0.0 0.00 0.16 0.16 97 1010.4
20260510015355 51 198 0.0 0.0 0.00 0.16 0.16 97 1010.3
20260510014902 51 197 0.0 0.0 0.00 0.16 0.16 96 1010.3
20260510014609 51 197 0.0 0.0 0.00 0.16 0.16 97 1010.3
20260510014352 51 197 0.0 0.0 0.00 0.16 0.16 97 1010.3
20260510013856 51 197 0.0 0.0 0.00 0.16 0.16 97 1010.3
20260510013346 51 197 0.0 0.0 0.00 0.16 0.16 97 1010.2
20260510013113 51 197 0.0 0.0 0.00 0.16 0.16 97 1010.3
20260510012911 51 197 0.0 0.0 0.00 0.16 0.16 97 1010.3
20260510012338 51 197 0.0 0.0 0.00 0.16 0.16 96 1010.3
20260510011848 51 197 0.0 0.0 0.00 0.16 0.16 96 1010.2
20260510011617 51 197 0.0 0.0 0.00 0.16 0.16 96 1010.2
20260510010918 51 197 0.0 0.0 0.00 0.16 0.16 95 1010.1
20260510010347 51 197 0.0 0.0 0.00 0.16 0.16 95 1010.1
20260510010109 51 197 0.0 0.0 0.00 0.16 0.16 95 1010.1
20260510005912 51 197 284.2 284.2 0.00 0.00 0.16 95 1009.9
20260510004844 52 197 0.0 0.0 0.00 0.16 0.16 94 1010.0
20260510004609 52 197 0.0 0.0 0.00 0.16 0.16 94 1009.9
20260510004350 52 197 0.0 0.0 0.00 0.16 0.16 94 1009.9
20260510003838 52 197 0.0 0.0 0.00 0.16 0.16 94 1009.9
20260510003350 53 197 0.0 0.0 0.00 0.16 0.16 93 1009.9
20260510003112 52 197 0.0 0.0 0.00 0.16 0.16 93 1009.8
20260510002853 53 197 0.0 0.0 0.00 0.16 0.16 93 1009.7
20260510002341 53 197 0.0 0.0 0.00 0.16 0.16 93 1009.6
20260510001850 54 197 0.0 0.0 0.00 0.16 0.16 92 1009.6
20260510001617 53 197 0.0 0.0 0.00 0.16 0.16 92 1009.4
20260510001345 54 197 0.0 0.0 0.00 0.16 0.16 92 1009.5
20260510000908 54 197 0.0 0.0 0.00 0.16 0.16 92 1009.5
20260510000342 55 197 0.0 0.0 0.00 0.16 0.16 91 1009.5
20260510000121 54 197 0.0 0.0 0.00 0.16 0.16 91 1009.3
20260509235846 55 197 0.0 0.0 0.00 0.16 0.16 91 1009.4
20260509235357 56 197 0.0 0.0 0.00 0.16 0.16 90 1009.3
20260509234842 56 197 0.0 0.0 0.00 0.16 0.16 90 1009.3
20260509234607 56 197 0.0 0.0 0.00 0.16 0.16 89 1009.3
20260509234352 56 197 0.0 0.0 0.00 0.16 0.16 89 1009.4
20260509233858 57 197 0.0 0.0 0.00 0.16 0.16 88 1009.4
20260509233341 57 197 0.0 0.0 0.00 0.16 0.16 88 1009.3
20260509233004 57 197 0.0 0.0 0.00 0.16 0.16 88 1009.2
20260509232904 57 197 0.0 0.9 0.00 0.16 0.16 88 1009.3
20260509232354 57 197 0.0 1.7 0.00 0.16 0.16 87 1009.4
20260509231857 58 197 0.0 1.7 0.00 0.16 0.16 87 1009.4
20260509231507 57 174 0.0 0.0 0.00 0.16 0.16 86 1009.3
20260509231407 58 174 0.0 0.0 0.00 0.16 0.16 86 1009.4
20260509230853 58 174 0.0 0.0 0.00 0.16 0.16 86 1009.4
20260509230345 58 174 0.0 1.7 0.00 0.16 0.16 85 1009.4
20260509230104 58 174 0.0 1.7 0.00 0.16 0.16 85 1009.3
20260509225849 58 174 0.0 1.7 0.00 0.16 0.16 85 1009.4
20260509225338 58 196 0.0 0.0 0.00 0.16 0.16 85 1009.3
20260509224847 58 199 0.0 1.7 0.00 0.16 0.16 85 1009.4
20260509224612 58 204 0.0 1.7 0.00 0.16 0.16 85 1009.3
20260509224357 58 181 0.0 1.7 0.00 0.16 0.16 86 1009.3
20260509223901 58 180 0.0 1.7 0.00 0.16 0.16 86 1009.2
20260509223408 58 142 0.0 1.7 0.00 0.16 0.16 86 1009.3
20260509223014 58 142 0.0 1.7 0.00 0.16 0.16 86 1009.2
20260509222910 58 142 0.0 1.7 0.00 0.16 0.16 86 1009.3
20260509222421 58 222 0.0 2.6 0.00 0.16 0.16 86 1009.2
20260509221844 58 184 0.9 2.6 0.00 0.16 0.16 86 1009.3
20260509221605 57 162 0.9 2.6 0.00 0.16 0.16 86 1009.2
20260509221412 58 150 0.9 2.6 0.00 0.16 0.16 87 1009.3
20260509220858 57 283 0.9 2.6 0.00 0.16 0.16 88 1009.4
20260509220349 57 243 0.0 4.3 0.00 0.16 0.16 88 1009.4
20260509220104 57 269 0.0 4.3 0.00 0.16 0.16 88 1009.3
20260509215850 57 251 0.9 4.3 0.00 0.16 0.16 88 1009.5
20260509215340 57 186 1.7 3.5 0.00 0.16 0.16 89 1009.5
20260509214620 56 210 0.0 2.6 0.00 0.16 0.16 90 1009.5
20260509214344 57 214 0.0 2.6 0.00 0.16 0.16 90 1009.6
20260509213359 57 205 0.0 2.6 0.00 0.16 0.16 91 1009.6
20260509213113 56 204 0.0 2.6 0.00 0.16 0.16 91 1009.5
20260509212858 56 243 0.9 2.6 0.00 0.16 0.16 91 1009.5
20260509212345 56 206 0.0 2.6 0.00 0.16 0.16 92 1009.5
20260509211855 56 227 0.0 2.6 0.00 0.16 0.16 91 1009.5
20260509211622 55 222 0.0 2.6 0.00 0.16 0.16 91 1009.4
20260509211345 56 193 0.0 2.6 0.00 0.16 0.16 91 1009.5
20260509210849 56 208 0.9 2.6 0.00 0.16 0.16 91 1009.5
20260509210359 56 173 0.0 2.6 0.00 0.16 0.16 92 1009.6
20260509210117 55 208 0.0 2.6 0.00 0.16 0.16 92 1009.6
20260509205857 56 185 0.0 1.7 0.00 0.16 0.16 92 1009.8
20260509205346 56 185 0.0 3.5 0.00 0.16 0.16 92 1009.9
20260509204855 56 228 0.9 3.5 0.00 0.16 0.16 92 1010.0
20260509204604 55 202 0.0 3.5 0.00 0.16 0.16 91 1010.0
20260509204408 56 171 0.9 3.5 0.00 0.16 0.16 91 1010.1
20260509203853 56 216 0.0 2.6 0.00 0.16 0.16 92 1009.9
20260509203346 56 211 0.0 2.6 0.00 0.16 0.16 92 1010.0
20260509203109 55 253 0.9 6.1 0.00 0.16 0.16 91 1010.0
20260509202849 56 222 0.9 6.1 0.00 0.16 0.16 92 1010.1
20260509202359 55 274 0.9 6.1 0.00 0.16 0.16 92 1010.2
20260509201839 55 287 1.7 4.3 0.00 0.16 0.16 93 1010.2
20260509201611 55 298 0.0 1.7 0.00 0.16 0.16 94 1010.1
20260509201411 55 210 0.0 1.7 0.00 0.16 0.16 94 1010.2
20260509200839 55 274 0.0 0.0 0.00 0.16 0.16 94 1010.2
20260509200352 54 286 0.0 1.7 0.00 0.16 0.16 94 1010.2
20260509200111 54 233 0.0 1.7 0.00 0.16 0.16 94 1010.1
20260509195916 54 268 0.0 1.7 0.00 0.16 0.16 94 1010.2
20260509195402 54 210 0.0 1.7 0.00 0.16 0.16 94 1010.1
20260509194851 54 213 0.0 1.7 0.00 0.16 0.16 94 1010.2
20260509194618 53 203 0.0 1.7 0.00 0.16 0.16 93 1010.1
20260509194359 54 203 0.9 1.7 0.01 0.16 0.16 93 1010.2
20260509193843 54 202 0.0 0.0 0.00 0.00 0.16 94 1010.0
20260509193354 54 220 0.0 1.7 0.01 0.16 0.16 94 1010.3
20260509193114 53 222 0.0 1.7 0.01 0.16 0.16 94 1010.2
20260509192918 54 160 0.0 1.7 0.01 0.16 0.16 94 1010.3
20260509192345 54 163 0.9 2.6 0.02 0.16 0.16 95 1010.4
20260509191851 54 279 0.9 1.7 0.02 0.16 0.16 95 1010.6
20260509191617 53 206 0.0 1.7 0.03 0.16 0.16 96 1010.5
20260509191359 53 185 0.0 1.7 0.03 0.16 0.16 95 1010.6
20260509190846 53 160 0.9 1.7 0.03 0.16 0.16 95 1010.6
20260509190357 53 166 0.9 1.7 0.03 0.16 0.16 96 1010.7
20260509190109 53 198 0.0 1.7 0.03 0.16 0.16 96 1010.7
20260509185851 53 168 0.0 1.7 0.03 0.16 0.16 95 1010.8
20260509185342 53 159 0.9 1.7 0.03 0.16 0.16 96 1011.0
20260509184846 53 222 0.9 2.6 0.04 0.16 0.16 95 1011.2
20260509184706 53 199 0.0 2.6 0.04 0.16 0.16 95 1011.2
20260509184335 53 158 0.9 2.6 0.03 0.15 0.15 95 1011.3
20260509183845 53 198 0.0 1.7 0.03 0.15 0.15 95 1011.4
20260509183357 53 192 0.0 1.7 0.03 0.15 0.15 95 1011.4
20260509183124 53 202 0.0 1.7 0.03 0.15 0.15 95 1011.2
20260509182839 53 168 0.9 1.7 0.04 0.15 0.15 95 1011.4
20260509182349 53 226 0.0 2.6 0.03 0.14 0.14 95 1011.5
20260509181857 53 201 0.9 2.6 0.03 0.14 0.14 94 1011.4
20260509181623 53 189 0.0 2.6 0.02 0.13 0.13 94 1011.3
20260509181344 53 210 0.0 1.7 0.02 0.13 0.13 94 1011.3
20260509180848 53 204 0.0 2.6 0.03 0.13 0.13 94 1011.3
20260509180400 54 229 0.9 2.6 0.03 0.13 0.13 94 1011.4
20260509180124 53 189 0.9 2.6 0.03 0.13 0.13 94 1011.4
20260509175843 54 187 0.9 1.7 0.04 0.13 0.13 94 1011.5
20260509175346 54 166 0.0 1.7 0.05 0.13 0.13 94 1011.4
20260509174852 54 186 0.0 1.7 0.05 0.12 0.12 94 1011.4
20260509174616 53 185 0.0 1.7 0.06 0.12 0.12 94 1011.4
20260509174336 54 167 0.0 1.7 0.06 0.12 0.12 94 1011.5
20260509173852 54 208 0.0 1.7 0.08 0.12 0.12 94 1011.3
20260509173340 54 243 0.0 1.7 0.09 0.12 0.12 94 1011.2
20260509173113 53 243 0.0 1.7 0.09 0.12 0.12 94 1011.1
20260509172351 54 239 0.0 1.7 0.09 0.11 0.11 93 1011.2
20260509171908 53 208 0.0 1.7 0.09 0.11 0.11 93 1011.3
20260509171609 53 275 0.0 1.7 0.09 0.11 0.11 92 1011.2
20260509171348 53 276 0.9 1.7 0.10 0.11 0.11 92 1011.2
20260509170847 54 283 0.0 1.7 0.09 0.10 0.10 92 1011.1
20260509170349 54 231 0.0 1.7 0.09 0.10 0.10 92 1011.2
20260509170106 53 291 0.0 1.7 0.09 0.10 0.10 91 1011.1
20260509165845 54 291 0.0 1.7 0.09 0.09 0.09 91 1010.9
20260509165409 54 301 0.9 2.6 0.08 0.08 0.08 91 1011.2
20260509164847 54 283 0.0 2.6 0.07 0.07 0.07 89 1011.3
20260509164610 54 283 0.9 2.6 0.06 0.06 0.06 89 1011.2
20260509164348 54 288 0.9 2.6 0.05 0.05 0.05 89 1011.4
20260509163849 55 275 0.9 2.6 0.04 0.04 0.04 89 1011.6
20260509163351 55 281 0.0 2.6 0.03 0.03 0.03 88 1011.7
20260509163112 55 205 0.9 3.5 0.03 0.03 0.03 88 1011.6
20260509162846 55 186 0.0 3.5 0.03 0.03 0.03 88 1011.7
20260509162410 55 206 0.9 4.3 0.02 0.02 0.02 86 1011.8
20260509161851 56 222 1.7 4.3 0.02 0.02 0.02 85 1011.8
20260509161612 56 206 0.9 3.5 0.02 0.02 0.02 86 1011.7
20260509160357 57 204 1.7 5.2 0.01 0.01 0.01 83 1011.8
20260509160121 57 221 0.9 5.2 0.01 0.01 0.01 82 1011.7
20260509155837 57 195 1.7 5.2 0.00 0.00 0.00 83 1011.8
20260509155341 58 261 0.9 2.6 0.00 0.00 0.00 84 1011.8
20260509154845 58 181 0.0 3.5 0.00 0.00 0.00 84 1011.8
20260509154608 57 198 0.0 3.5 0.00 0.00 0.00 83 1011.7
20260509154347 58 207 0.9 3.5 0.00 0.00 0.00 83 1011.8
20260509153848 58 192 0.9 1.7 0.00 0.00 0.00 82 1011.8
20260509153352 58 193 0.9 5.2 0.00 0.00 0.00 83 1011.8
20260509153112 57 179 0.0 5.2 0.00 0.00 0.00 82 1011.8
20260509152850 58 218 0.9 5.2 0.00 0.00 0.00 82 1011.9
20260509152352 58 193 1.7 5.2 0.00 0.00 0.00 82 1011.8
20260509151854 57 170 0.9 3.5 0.00 0.00 0.00 82 1011.8
20260509151338 57 213 0.9 3.5 0.00 0.00 0.00 82 1011.7
20260509150857 57 204 0.9 5.2 0.00 0.00 0.00 82 1011.8
20260509150420 57 206 2.6 5.2 0.00 0.00 0.00 82 1011.7
20260509150119 56 204 0.9 5.2 0.00 0.00 0.00 82 1011.7
20260509145857 57 212 1.7 5.2 0.00 0.00 0.00 82 1011.8
20260509144845 56 183 0.9 3.5 0.00 0.00 0.00 82 1011.8
20260509144609 56 209 0.0 4.3 0.00 0.00 0.00 83 1011.7
20260509144353 56 172 0.9 4.3 0.00 0.00 0.00 82 1011.6
20260509143837 56 177 0.9 4.3 0.00 0.00 0.00 82 1011.5
20260509143349 56 186 0.0 1.7 0.00 0.00 0.00 81 1011.3
20260509143105 56 186 0.0 2.6 0.00 0.00 0.00 82 1011.3
20260509142850 56 184 0.0 2.6 0.00 0.00 0.00 81 1011.3
20260509142339 56 152 0.9 2.6 0.00 0.00 0.00 82 1011.4
20260509141846 56 173 0.0 1.7 0.00 0.00 0.00 82 1011.4
20260509141611 56 178 0.0 1.7 0.00 0.00 0.00 83 1011.3
20260509141354 56 202 0.0 1.7 0.00 0.00 0.00 83 1011.4
20260509140837 56 200 0.0 1.7 0.00 0.00 0.00 82 1011.4
20260509140408 56 173 0.0 1.7 0.00 0.00 0.00 83 1011.3
20260509140105 55 171 0.0 1.7 0.00 0.00 0.00 82 1011.2
20260509135850 56 165 0.0 1.7 0.00 0.00 0.00 83 1011.3
20260509135336 56 185 0.0 1.7 0.00 0.00 0.00 83 1011.3
20260509134846 56 162 0.0 1.7 0.00 0.00 0.00 83 1011.3
20260509134611 55 162 0.0 1.7 0.00 0.00 0.00 83 1011.2
20260509134357 56 183 0.0 1.7 0.00 0.00 0.00 83 1011.4
20260509133841 55 165 0.0 1.7 0.00 0.00 0.00 83 1011.3
20260509133415 55 165 0.0 2.6 0.00 0.00 0.00 83 1011.3
20260509133111 55 165 0.0 2.6 0.00 0.00 0.00 83 1011.3
20260509132856 55 174 0.0 2.6 0.00 0.00 0.00 82 1011.3
20260509132345 55 151 0.0 1.7 0.00 0.00 0.00 84 1011.3
20260509131847 55 158 0.9 1.7 0.00 0.00 0.00 83 1011.4
20260509131616 54 172 0.0 2.6 0.00 0.00 0.00 83 1011.2
20260509131336 55 111 0.0 2.6 0.00 0.00 0.00 84 1011.1
20260509130843 55 110 0.9 2.6 0.00 0.00 0.00 84 1011.2
20260509130355 55 175 0.9 2.6 0.00 0.00 0.00 84 1011.2
20260509130115 54 150 0.0 1.7 0.00 0.00 0.00 84 1011.2
20260509125838 54 127 0.0 0.9 0.00 0.00 0.00 84 1011.1
20260509125349 54 70 0.0 0.9 0.00 0.00 0.00 86 1011.1
20260509124613 54 70 0.0 1.7 0.00 0.00 0.00 85 1011.1
20260509124336 54 70 0.0 1.7 0.00 0.00 0.00 84 1011.2
20260509123846 54 70 0.0 1.7 0.00 0.00 0.00 84 1011.2
20260509123355 54 84 0.0 0.0 0.00 0.00 0.00 84 1011.2
20260509123118 53 84 0.0 0.0 0.00 0.00 0.00 85 1011.2
20260509122900 54 84 0.0 0.0 0.00 0.00 0.00 84 1011.4
20260509122410 54 71 0.0 0.0 0.00 0.00 0.00 85 1011.3
20260509121852 53 58 0.0 3.5 0.00 0.00 0.00 84 1011.3
20260509121622 53 58 0.0 3.5 0.00 0.00 0.00 84 1011.3
20260509121341 53 124 0.0 3.5 0.00 0.00 0.00 85 1011.4
20260509120848 53 68 0.0 0.0 0.00 0.00 0.00 85 1011.5
20260509120359 53 46 0.0 1.7 0.00 0.00 0.00 85 1011.5
20260509120004 52 50 0.0 1.7 0.00 0.00 0.00 85 1011.5
20260509115903 53 50 0.0 1.7 0.00 0.00 0.00 85 1011.4
20260509115354 53 2 0.0 0.0 0.00 0.00 0.00 85 1011.4
20260509114903 52 54 0.0 0.9 0.00 0.00 0.00 86 1011.4
20260509114609 52 54 0.0 0.9 0.00 0.00 0.00 86 1011.4
20260509114351 52 54 0.0 1.7 0.00 0.00 0.00 86 1011.4
20260509113339 52 338 0.0 1.7 0.00 0.00 0.00 86 1011.2
20260509113133 51 338 0.0 1.7 0.00 0.00 0.00 86 1011.2
20260509112845 52 338 0.0 0.0 0.00 0.00 0.00 86 1011.2
20260509112356 51 302 0.0 1.7 0.00 0.00 0.00 86 1011.2
20260509111842 51 302 0.0 1.7 0.00 0.00 0.00 86 1011.2
20260509111609 51 343 0.0 1.7 0.00 0.00 0.00 86 1011.2
20260509111350 51 14 0.0 2.6 0.00 0.00 0.00 86 1011.1
20260509110911 51 6 0.9 2.6 0.00 0.00 0.00 86 1010.9
20260509110342 51 352 0.0 1.7 0.00 0.00 0.00 87 1011.1
20260509110122 50 352 0.0 1.7 0.00 0.00 0.00 87 1011.1
20260509105842 51 339 0.0 0.9 0.00 0.00 0.00 87 1011.1
20260509105413 51 339 0.0 1.7 0.00 0.00 0.00 87 1011.0
20260509104841 51 313 0.0 1.7 0.00 0.00 0.00 87 1010.9
20260509104609 50 313 0.0 1.7 0.00 0.00 0.00 87 1011.0
20260509104350 51 313 0.9 1.7 0.00 0.00 0.00 87 1010.9
20260509103841 51 323 0.9 2.6 0.00 0.00 0.00 86 1011.0
20260509103351 51 46 0.0 2.6 0.00 0.00 0.00 86 1010.9
20260509103113 50 56 0.0 2.6 0.00 0.00 0.00 86 1010.8
20260509102348 50 54 0.0 1.7 0.00 0.00 0.00 87 1010.8
20260509101854 50 16 0.0 1.7 0.00 0.00 0.00 87 1010.8
20260509101619 50 320 0.0 1.7 0.00 0.00 0.00 87 1010.9
20260509101344 50 313 0.0 1.7 0.00 0.00 0.00 87 1010.9
20260509100911 50 337 0.0 1.7 0.00 0.00 0.00 87 1010.7
20260509100339 50 8 0.0 1.7 0.00 0.00 0.00 86 1010.7
20260509100118 50 8 0.0 1.7 0.00 0.00 0.00 87 1010.8
20260509095844 51 8 0.0 1.7 0.00 0.00 0.00 87 1010.8
20260509095355 50 8 0.0 1.7 0.00 0.00 0.00 86 1010.7
20260509094839 50 8 0.0 1.7 0.00 0.00 0.00 86 1010.6
20260509094605 50 8 0.0 0.9 0.00 0.00 0.00 86 1010.8
20260509094350 50 8 0.0 0.9 0.00 0.00 0.00 86 1010.8
20260509093855 50 341 0.0 1.7 0.00 0.00 0.00 86 1010.9